When you browse on this site, cookies collect data to enhance your experience and personalize the content and advertising you see.
Visit our Privacy Policy to learn more. By continuing to use the site, you agree to this use of cookies and data.
  • In Latvia
  • List of Countries
  • For 7 days
  • Water Temperature
  • Satellite Maps
  • Weather Map
  • Weather Widgets
  • user-avatar
    Login

    Hourly Weather Szarbia

    Today, 21 February, Thursday

    Time Temperature Precipitation Wind Pressure Humidity
    00:00 +3°C° 0 mm 4 mps 748 mmHg 79%
    01:00 +2°C° 0 mm 3 mps 748 mmHg 81%
    02:00 +1°C° 0 mm 4 mps 748 mmHg 80%
    03:00 +1°C° 0 mm 4 mps 748 mmHg 80%
    04:00 +1°C° 0 mm 4 mps 748 mmHg 79%
    05:00 +1°C° 0 mm 4 mps 748 mmHg 78%
    06:00 +3°C° 0 mm 4 mps 748 mmHg 77%
    07:00 +2°C° 0 mm 5 mps 748 mmHg 77%
    08:00 +3°C° 0 mm 5 mps 748 mmHg 74%
    09:00 +5°C° 0 mm 5 mps 748 mmHg 72%
    10:00 +6°C° 0 mm 5 mps 748 mmHg 69%
    11:00 +7°C° 0 mm 6 mps 748 mmHg 65%
    12:00 +7°C° 0 mm 6 mps 748 mmHg 61%
    13:00 +8°C° 0 mm 6 mps 748 mmHg 58%
    14:00 +8°C° 0.1 mm 5 mps 747 mmHg 61%
    15:00 +7°C° 0.1 mm 5 mps 747 mmHg 64%
    16:00 +7°C° 0.1 mm 5 mps 747 mmHg 67%
    17:00 +7°C° 0.5 mm 5 mps 747 mmHg 72%
    18:00 +6°C° 0.5 mm 5 mps 746 mmHg 76%
    19:00 +6°C° 0.5 mm 5 mps 746 mmHg 80%
    20:00 +5°C° 0.6 mm 5 mps 746 mmHg 82%
    21:00 +5°C° 0.6 mm 5 mps 746 mmHg 83%
    22:00 +5°C° 0.6 mm 5 mps 745 mmHg 84%
    23:00 +5°C° 0.5 mm 5 mps 745 mmHg 85%

    Tomorrow, 22 February, Friday

    Time Temperature Precipitation Wind Pressure Humidity
    00:00 +5°C° 0.5 mm 5 mps 745 mmHg 86%
    01:00 +5°C° 0.5 mm 5 mps 745 mmHg 87%
    02:00 +5°C° 0.6 mm 5 mps 745 mmHg 88%
    03:00 +5°C° 0.6 mm 5 mps 744 mmHg 89%
    04:00 +5°C° 0.6 mm 5 mps 744 mmHg 90%
    05:00 +2°C° 0.9 mm 6 mps 745 mmHg 88%
    06:00 -1°C° 0.9 mm 8 mps 746 mmHg 86%
    07:00 -4°C° 0.9 mm 9 mps 747 mmHg 85%
    08:00 -4°C° 0.1 mm 8 mps 748 mmHg 80%
    09:00 -4°C° 0.1 mm 8 mps 750 mmHg 75%
    10:00 -4°C° 0.1 mm 7 mps 751 mmHg 71%
    11:00 -3°C° 0 mm 7 mps 752 mmHg 63%
    12:00 -3°C° 0 mm 7 mps 753 mmHg 56%
    13:00 -3°C° 0 mm 6 mps 754 mmHg 49%
    14:00 -3°C° 0 mm 6 mps 754 mmHg 49%
    15:00 -4°C° 0 mm 6 mps 755 mmHg 49%
    16:00 -4°C° 0 mm 6 mps 755 mmHg 49%
    17:00 -5°C° 0 mm 6 mps 756 mmHg 51%
    18:00 -6°C° 0 mm 5 mps 757 mmHg 52%
    19:00 -6°C° 0 mm 5 mps 758 mmHg 54%
    20:00 -6°C° 0 mm 5 mps 758 mmHg 52%
    21:00 -6°C° 0 mm 5 mps 759 mmHg 49%
    22:00 -7°C° 0 mm 5 mps 759 mmHg 46%
    23:00 -7°C° 0 mm 4 mps 759 mmHg 45%

    Day after tomorrow, 23 February, Saturday

    Time Temperature Precipitation Wind Pressure Humidity
    00:00 -7°C° 0 mm 4 mps 760 mmHg 44%
    01:00 -7°C° 0 mm 4 mps 760 mmHg 43%
    02:00 -7°C° 0 mm 4 mps 760 mmHg 44%
    03:00 -6°C° 0 mm 3 mps 760 mmHg 45%
    04:00 -6°C° 0 mm 3 mps 760 mmHg 46%
    05:00 -6°C° 0 mm 3 mps 761 mmHg 47%
    06:00 -7°C° 0 mm 3 mps 761 mmHg 49%
    07:00 -7°C° 0 mm 3 mps 761 mmHg 50%
    08:00 -6°C° 0 mm 3 mps 761 mmHg 47%
    09:00 -5°C° 0 mm 3 mps 761 mmHg 44%
    10:00 -5°C° 0 mm 4 mps 762 mmHg 41%
    11:00 -4°C° 0 mm 4 mps 761 mmHg 38%
    12:00 -2°C° 0 mm 3 mps 761 mmHg 35%
    13:00 -2°C° 0 mm 3 mps 761 mmHg 32%
    14:00 -2°C° 0 mm 3 mps 761 mmHg 33%
    15:00 -2°C° 0 mm 3 mps 761 mmHg 33%
    16:00 -2°C° 0 mm 3 mps 761 mmHg 34%
    17:00 -2°C° 0 mm 2 mps 761 mmHg 38%
    18:00 -1°C° 0 mm 1 mps 761 mmHg 42%
    19:00 -2°C° 0 mm 1 mps 761 mmHg 46%
    20:00 -2°C° 0 mm 1 mps 761 mmHg 47%
    21:00 -3°C° 0 mm 0 mps 761 mmHg 48%
    22:00 -3°C° 0 mm 0 mps 761 mmHg 48%
    23:00 -3°C° 0 mm 0 mps 761 mmHg 49%

    24 February, Sunday

    Time Temperature Precipitation Wind Pressure Humidity
    00:00 -3°C° 0 mm 0 mps 761 mmHg 49%
    01:00 -3°C° 0 mm 0 mps 760 mmHg 49%
    02:00 -3°C° 0 mm 0 mps 760 mmHg 47%
    03:00 -2°C° 0 mm 1 mps 760 mmHg 45%
    04:00 -1°C° 0 mm 1 mps 759 mmHg 44%
    05:00 -1°C° 0 mm 1 mps 759 mmHg 43%
    06:00 -2°C° 0 mm 0 mps 759 mmHg 43%
    07:00 -2°C° 0 mm 0 mps 759 mmHg 43%
    08:00 0°C° 0 mm 1 mps 759 mmHg 38%
    09:00 0°C° 0 mm 1 mps 759 mmHg 34%
    10:00 +1°C° 0 mm 1 mps 759 mmHg 29%
    11:00 +2°C° 0 mm 1 mps 759 mmHg 28%
    12:00 +3°C° 0 mm 1 mps 758 mmHg 27%
    13:00 +3°C° 0 mm 2 mps 758 mmHg 26%
    14:00 +3°C° 0 mm 2 mps 758 mmHg 30%
    15:00 +4°C° 0 mm 1 mps 758 mmHg 33%
    16:00 +4°C° 0 mm 1 mps 757 mmHg 37%
    17:00 +3°C° 0 mm 1 mps 758 mmHg 40%
    18:00 +2°C° 0 mm 1 mps 758 mmHg 42%
    19:00 +1°C° 0 mm 1 mps 758 mmHg 45%
    20:00 -1°C° 0 mm 2 mps 758 mmHg 46%
    21:00 -1°C° 0 mm 2 mps 758 mmHg 47%
    22:00 -2°C° 0 mm 2 mps 758 mmHg 47%
    23:00 -2°C° 0 mm 2 mps 758 mmHg 48%

    25 February, Monday

    Time Temperature Precipitation Wind Pressure Humidity
    00:00 -1°C° 0 mm 2 mps 758 mmHg 48%
    01:00 -1°C° 0 mm 2 mps 758 mmHg 49%
    02:00 -1°C° 0 mm 2 mps 758 mmHg 50%
    03:00 -1°C° 0 mm 2 mps 758 mmHg 51%
    04:00 -1°C° 0 mm 3 mps 757 mmHg 53%
    05:00 -1°C° 0 mm 3 mps 757 mmHg 55%
    06:00 -1°C° 0 mm 3 mps 758 mmHg 57%
    07:00 -1°C° 0 mm 3 mps 758 mmHg 59%
    08:00 0°C° 0 mm 3 mps 758 mmHg 58%
    09:00 +1°C° 0 mm 4 mps 758 mmHg 56%
    10:00 +3°C° 0 mm 4 mps 758 mmHg 55%
    11:00 +4°C° 0 mm 4 mps 757 mmHg 55%
    12:00 +5°C° 0 mm 4 mps 757 mmHg 56%
    13:00 +6°C° 0 mm 4 mps 757 mmHg 56%
    14:00 +6°C° 0 mm 4 mps 756 mmHg 59%
    15:00 +5°C° 0 mm 4 mps 756 mmHg 63%
    16:00 +5°C° 0 mm 3 mps 756 mmHg 66%
    17:00 +4°C° 0 mm 3 mps 756 mmHg 71%
    18:00 +3°C° 0 mm 3 mps 756 mmHg 76%
    19:00 +1°C° 0 mm 3 mps 756 mmHg 81%
    20:00 +1°C° 0 mm 3 mps 756 mmHg 83%
    21:00 +1°C° 0 mm 3 mps 756 mmHg 85%
    22:00 +1°C° 0 mm 3 mps 756 mmHg 86%
    23:00 +1°C° 0 mm 3 mps 756 mmHg 87%

    26 February, Tuesday

    Time Temperature Precipitation Wind Pressure Humidity
    00:00 0°C° 0 mm 3 mps 755 mmHg 88%
    01:00 0°C° 0 mm 3 mps 755 mmHg 89%
    02:00 0°C° 0 mm 3 mps 754 mmHg 89%
    03:00 -1°C° 0 mm 4 mps 754 mmHg 88%
    04:00 0°C° 0 mm 4 mps 753 mmHg 88%
    05:00 0°C° 0 mm 4 mps 753 mmHg 88%
    06:00 0°C° 0 mm 5 mps 752 mmHg 87%
    07:00 0°C° 0 mm 5 mps 752 mmHg 86%
    08:00 +1°C° 0 mm 6 mps 751 mmHg 81%
    09:00 +3°C° 0 mm 6 mps 751 mmHg 76%
    10:00 +4°C° 0 mm 6 mps 751 mmHg 71%
    11:00 +5°C° 0 mm 7 mps 750 mmHg 68%
    12:00 +5°C° 0 mm 7 mps 749 mmHg 66%
    13:00 +6°C° 0 mm 7 mps 749 mmHg 64%
    14:00 +5°C° 0.4 mm 7 mps 748 mmHg 68%
    15:00 +5°C° 0.4 mm 7 mps 748 mmHg 73%
    16:00 +4°C° 0.4 mm 7 mps 747 mmHg 77%
    17:00 +4°C° 0 mm 6 mps 748 mmHg 79%
    18:00 +4°C° 0 mm 6 mps 748 mmHg 81%
    19:00 +3°C° 0 mm 5 mps 748 mmHg 83%
    20:00 +3°C° 0 mm 5 mps 748 mmHg 86%
    21:00 +3°C° 0 mm 5 mps 748 mmHg 88%
    22:00 +2°C° 0 mm 5 mps 748 mmHg 90%
    23:00 +2°C° 0 mm 5 mps 748 mmHg 89%
    Show more